• In Deutschland
  • Länderverzeichnis
  • Für 7 Tage
  • Wassertemperatur
  • Satellitenkarten
  • Wetterkarte
  • Widgets
  • user-avatar
    Anmelden

    Stündliche Wetter Schwelm

    Heute, 16 Juli, Montag

    Zeit Temperatur Niederschläge Wind Luftdruck Luftfeuchtigkeit
    00:00 +18°C° 0 mm 2 m/S 741 mmHg 67%
    01:00 +17°C° 0 mm 2 m/S 741 mmHg 70%
    02:00 +18°C° 0 mm 1 m/S 741 mmHg 72%
    03:00 +16°C° 0 mm 1 m/S 741 mmHg 75%
    04:00 +18°C° 0 mm 1 m/S 741 mmHg 72%
    05:00 +19°C° 0 mm 1 m/S 741 mmHg 70%
    06:00 +21°C° 0 mm 1 m/S 741 mmHg 63%
    07:00 +23°C° 0 mm 1 m/S 740 mmHg 57%
    08:00 +25°C° 0 mm 1 m/S 740 mmHg 51%
    09:00 +27°C° 0 mm 1 m/S 740 mmHg 45%
    10:00 +27°C° 0,1 mm 1 m/S 740 mmHg 45%
    11:00 +28°C° 0,1 mm 1 m/S 740 mmHg 40%
    12:00 +30°C° 0 mm 1 m/S 740 mmHg 33%
    13:00 +30°C° 0 mm 1 m/S 740 mmHg 33%
    14:00 +30°C° 0 mm 1 m/S 740 mmHg 33%
    15:00 +30°C° 0 mm 2 m/S 739 mmHg 34%
    16:00 +29°C° 0 mm 2 m/S 739 mmHg 37%
    17:00 +28°C° 0 mm 2 m/S 739 mmHg 41%
    18:00 +27°C° 0 mm 2 m/S 739 mmHg 45%
    19:00 +25°C° 0 mm 2 m/S 739 mmHg 49%
    20:00 +24°C° 0 mm 1 m/S 740 mmHg 53%
    21:00 +22°C° 0 mm 1 m/S 740 mmHg 57%
    22:00 +22°C° 0 mm 1 m/S 740 mmHg 60%
    23:00 +21°C° 0 mm 1 m/S 740 mmHg 63%

    Morgen, 17 Juli, Dienstag

    Zeit Temperatur Niederschläge Wind Luftdruck Luftfeuchtigkeit
    00:00 +20°C° 0 mm 1 m/S 740 mmHg 66%
    01:00 +20°C° 0 mm 1 m/S 740 mmHg 68%
    02:00 +19°C° 0 mm 1 m/S 740 mmHg 69%
    03:00 +19°C° 0 mm 1 m/S 740 mmHg 70%
    04:00 +20°C° 0 mm 1 m/S 740 mmHg 68%
    05:00 +21°C° 0 mm 1 m/S 740 mmHg 66%
    06:00 +22°C° 0 mm 1 m/S 740 mmHg 63%
    07:00 +23°C° 0 mm 1 m/S 741 mmHg 57%
    08:00 +25°C° 0 mm 2 m/S 741 mmHg 52%
    09:00 +27°C° 0 mm 2 m/S 741 mmHg 46%
    10:00 +28°C° 0 mm 2 m/S 741 mmHg 42%
    11:00 +29°C° 0 mm 2 m/S 741 mmHg 39%
    12:00 +30°C° 0 mm 3 m/S 741 mmHg 35%
    13:00 +30°C° 0 mm 3 m/S 741 mmHg 36%
    14:00 +29°C° 0 mm 3 m/S 741 mmHg 37%
    15:00 +29°C° 0 mm 3 m/S 741 mmHg 37%
    16:00 +28°C° 0 mm 3 m/S 741 mmHg 43%
    17:00 +27°C° 0 mm 3 m/S 741 mmHg 48%
    18:00 +26°C° 0 mm 3 m/S 741 mmHg 54%
    19:00 +24°C° 0,3 mm 3 m/S 741 mmHg 59%
    20:00 +21°C° 0,3 mm 2 m/S 742 mmHg 64%
    21:00 +20°C° 0,3 mm 2 m/S 742 mmHg 70%
    22:00 +19°C° 0 mm 2 m/S 742 mmHg 72%
    23:00 +18°C° 0 mm 2 m/S 742 mmHg 74%

    übermorgen, 18 Juli, Mittwoch

    Zeit Temperatur Niederschläge Wind Luftdruck Luftfeuchtigkeit
    00:00 +18°C° 0 mm 1 m/S 742 mmHg 76%
    01:00 +18°C° 0 mm 1 m/S 743 mmHg 77%
    02:00 +16°C° 0 mm 1 m/S 743 mmHg 78%
    03:00 +16°C° 0 mm 1 m/S 743 mmHg 80%
    04:00 +18°C° 0 mm 1 m/S 743 mmHg 77%
    05:00 +18°C° 0 mm 1 m/S 743 mmHg 75%
    06:00 +19°C° 0 mm 1 m/S 743 mmHg 72%
    07:00 +21°C° 0 mm 1 m/S 743 mmHg 64%
    08:00 +22°C° 0 mm 1 m/S 743 mmHg 56%
    09:00 +24°C° 0 mm 1 m/S 743 mmHg 48%
    10:00 +25°C° 0 mm 1 m/S 743 mmHg 45%
    11:00 +26°C° 0 mm 1 m/S 743 mmHg 41%
    12:00 +27°C° 0 mm 1 m/S 743 mmHg 38%
    13:00 +27°C° 0 mm 1 m/S 743 mmHg 36%
    14:00 +27°C° 0 mm 2 m/S 743 mmHg 35%
    15:00 +28°C° 0 mm 2 m/S 743 mmHg 34%
    16:00 +27°C° 0 mm 2 m/S 743 mmHg 38%
    17:00 +26°C° 0 mm 2 m/S 743 mmHg 42%
    18:00 +25°C° 0 mm 2 m/S 743 mmHg 46%
    19:00 +24°C° 0 mm 2 m/S 743 mmHg 50%
    20:00 +21°C° 0 mm 2 m/S 743 mmHg 55%
    21:00 +20°C° 0 mm 2 m/S 744 mmHg 59%
    22:00 +19°C° 0 mm 2 m/S 744 mmHg 61%
    23:00 +18°C° 0 mm 2 m/S 744 mmHg 64%

    19 Juli, Donnerstag

    Zeit Temperatur Niederschläge Wind Luftdruck Luftfeuchtigkeit
    00:00 +18°C° 0 mm 2 m/S 744 mmHg 66%
    01:00 +18°C° 0 mm 1 m/S 744 mmHg 68%
    02:00 +18°C° 0 mm 1 m/S 743 mmHg 70%
    03:00 +16°C° 0 mm 1 m/S 743 mmHg 71%
    04:00 +18°C° 0 mm 1 m/S 744 mmHg 69%
    05:00 +19°C° 0 mm 1 m/S 744 mmHg 66%
    06:00 +20°C° 0 mm 1 m/S 744 mmHg 63%
    07:00 +22°C° 0 mm 1 m/S 744 mmHg 57%
    08:00 +24°C° 0 mm 1 m/S 744 mmHg 51%
    09:00 +26°C° 0 mm 1 m/S 744 mmHg 45%
    10:00 +27°C° 0 mm 1 m/S 743 mmHg 43%
    11:00 +27°C° 0 mm 1 m/S 743 mmHg 42%
    12:00 +28°C° 0 mm 1 m/S 743 mmHg 41%
    13:00 +28°C° 0 mm 1 m/S 743 mmHg 40%
    14:00 +28°C° 0 mm 1 m/S 743 mmHg 39%
    15:00 +28°C° 0 mm 1 m/S 743 mmHg 38%
    16:00 +27°C° 0 mm 1 m/S 743 mmHg 42%
    17:00 +27°C° 0 mm 1 m/S 742 mmHg 45%
    18:00 +26°C° 0 mm 1 m/S 742 mmHg 49%
    19:00 +25°C° 0 mm 2 m/S 742 mmHg 52%
    20:00 +23°C° 0 mm 2 m/S 742 mmHg 56%
    21:00 +21°C° 0 mm 2 m/S 742 mmHg 59%
    22:00 +20°C° 0 mm 2 m/S 742 mmHg 60%
    23:00 +20°C° 0 mm 2 m/S 742 mmHg 61%

    20 Juli, Freitag

    Zeit Temperatur Niederschläge Wind Luftdruck Luftfeuchtigkeit
    00:00 +19°C° 0 mm 2 m/S 742 mmHg 62%
    01:00 +19°C° 0 mm 2 m/S 742 mmHg 62%
    02:00 +19°C° 0 mm 2 m/S 742 mmHg 62%
    03:00 +19°C° 0 mm 2 m/S 742 mmHg 62%
    04:00 +19°C° 0 mm 2 m/S 741 mmHg 61%
    05:00 +20°C° 0 mm 2 m/S 741 mmHg 60%
    06:00 +20°C° 0 mm 2 m/S 741 mmHg 60%
    07:00 +23°C° 0 mm 2 m/S 741 mmHg 55%
    08:00 +24°C° 0 mm 2 m/S 741 mmHg 51%
    09:00 +26°C° 0 mm 2 m/S 741 mmHg 47%
    10:00 +26°C° 0 mm 2 m/S 741 mmHg 47%
    11:00 +26°C° 0 mm 1 m/S 741 mmHg 47%
    12:00 +27°C° 0 mm 1 m/S 740 mmHg 47%
    13:00 +26°C° 0,1 mm 1 m/S 740 mmHg 50%
    14:00 +26°C° 0,1 mm 1 m/S 740 mmHg 53%
    15:00 +25°C° 0,1 mm 1 m/S 740 mmHg 56%
    16:00 +25°C° 0,1 mm 1 m/S 739 mmHg 58%
    17:00 +24°C° 0,1 mm 1 m/S 739 mmHg 61%
    18:00 +24°C° 0,1 mm 1 m/S 739 mmHg 63%
    19:00 +23°C° 0,1 mm 1 m/S 739 mmHg 66%
    20:00 +22°C° 0,1 mm 1 m/S 739 mmHg 69%
    21:00 +21°C° 0,1 mm 1 m/S 739 mmHg 72%
    22:00 +21°C° 0,1 mm 1 m/S 739 mmHg 74%
    23:00 +20°C° 0,1 mm 1 m/S 739 mmHg 76%

    21 Juli, Samstag

    Zeit Temperatur Niederschläge Wind Luftdruck Luftfeuchtigkeit
    00:00 +20°C° 0,1 mm 1 m/S 739 mmHg 78%
    01:00 +19°C° 0,2 mm 1 m/S 739 mmHg 80%
    02:00 +19°C° 0,2 mm 1 m/S 739 mmHg 82%
    03:00 +18°C° 0,2 mm 1 m/S 738 mmHg 84%
    04:00 +19°C° 0,1 mm 1 m/S 739 mmHg 83%
    05:00 +19°C° 0,1 mm 1 m/S 739 mmHg 83%
    06:00 +18°C° 0,1 mm 2 m/S 739 mmHg 82%
    07:00 +19°C° 0,3 mm 2 m/S 739 mmHg 80%
    08:00 +19°C° 0,3 mm 3 m/S 739 mmHg 78%
    09:00 +20°C° 0,3 mm 3 m/S 739 mmHg 76%
    10:00 +21°C° 0,3 mm 3 m/S 739 mmHg 70%
    11:00 +22°C° 0,3 mm 4 m/S 739 mmHg 65%
    12:00 +23°C° 0,3 mm 4 m/S 739 mmHg 59%
    13:00 +23°C° 0,4 mm 4 m/S 739 mmHg 58%
    14:00 +23°C° 0,4 mm 5 m/S 739 mmHg 57%
    15:00 +22°C° 0,4 mm 5 m/S 740 mmHg 57%
    16:00 +22°C° 0 mm 4 m/S 740 mmHg 58%
    17:00 +21°C° 0 mm 4 m/S 740 mmHg 60%
    18:00 +20°C° 0 mm 3 m/S 740 mmHg 62%
    19:00 +19°C° 0 mm 3 m/S 740 mmHg 65%
    20:00 +18°C° 0 mm 3 m/S 741 mmHg 69%
    21:00 +17°C° 0 mm 3 m/S 741 mmHg 73%
    22:00 +16°C° 0 mm 3 m/S 741 mmHg 77%
    23:00 +14°C° 0 mm 3 m/S 741 mmHg 81%
    Mehr zeigen